Year,Month,Day,Hour,Minute,Value (Times are PST for temperature in C)
2007,08,05,00,00,17.50
2007,08,05,00,01,17.50
2007,08,05,00,02,17.40
2007,08,05,00,03,17.40
2007,08,05,00,04,17.30
2007,08,05,00,05,17.30
2007,08,05,00,06,17.30
2007,08,05,00,07,17.30
2007,08,05,00,08,17.30
2007,08,05,00,09,17.30
2007,08,05,00,10,17.20
2007,08,05,00,11,17.20
2007,08,05,00,12,17.10
2007,08,05,00,13,17.10
2007,08,05,00,14,17.00
2007,08,05,00,15,17.00
2007,08,05,00,16,16.90
2007,08,05,00,17,16.90
2007,08,05,00,18,16.90
2007,08,05,00,19,16.80
2007,08,05,00,20,16.80
2007,08,05,00,21,16.80
2007,08,05,00,22,16.80
2007,08,05,00,23,16.80
2007,08,05,00,24,16.80
2007,08,05,00,25,16.80
2007,08,05,00,26,16.80
2007,08,05,00,27,16.80
2007,08,05,00,28,16.80
2007,08,05,00,29,16.80
2007,08,05,00,30,16.80
2007,08,05,00,31,16.80
2007,08,05,00,32,16.80
2007,08,05,00,33,16.80
2007,08,05,00,34,16.80
2007,08,05,00,35,16.70
2007,08,05,00,36,16.80
2007,08,05,00,37,16.80
2007,08,05,00,38,16.80
2007,08,05,00,39,16.80
2007,08,05,00,40,16.80
2007,08,05,00,41,16.80
2007,08,05,00,42,16.80
2007,08,05,00,43,16.70
2007,08,05,00,44,16.70
2007,08,05,00,45,16.70
2007,08,05,00,46,16.70
2007,08,05,00,47,16.70
2007,08,05,00,48,16.60
2007,08,05,00,49,16.60
2007,08,05,00,50,16.50
2007,08,05,00,51,16.40
2007,08,05,00,52,16.40
2007,08,05,00,53,16.40
2007,08,05,00,54,16.40
2007,08,05,00,55,16.30
2007,08,05,00,56,16.30
2007,08,05,00,57,16.20
2007,08,05,00,58,16.10
2007,08,05,00,59,16.10
2007,08,05,01,00,16.10
2007,08,05,01,01,16.00
2007,08,05,01,02,15.90
2007,08,05,01,03,15.80
2007,08,05,01,04,15.80
2007,08,05,01,05,15.80
2007,08,05,01,06,15.70
2007,08,05,01,07,15.70
2007,08,05,01,08,15.60
2007,08,05,01,09,15.50
2007,08,05,01,10,15.50
2007,08,05,01,11,15.40
2007,08,05,01,12,15.40
2007,08,05,01,13,15.30
2007,08,05,01,14,15.30
2007,08,05,01,15,15.20
2007,08,05,01,16,15.20
2007,08,05,01,17,15.10
2007,08,05,01,18,15.10
2007,08,05,01,19,15.00
2007,08,05,01,20,15.00
2007,08,05,01,21,14.90
2007,08,05,01,22,14.90
2007,08,05,01,23,14.80
2007,08,05,01,24,14.80
2007,08,05,01,25,14.80
2007,08,05,01,26,14.70
2007,08,05,01,27,14.70
2007,08,05,01,28,14.70
2007,08,05,01,29,14.60
2007,08,05,01,30,14.60
2007,08,05,01,31,14.60
2007,08,05,01,32,14.50
2007,08,05,01,33,14.50
2007,08,05,01,34,14.40
2007,08,05,01,35,14.40
2007,08,05,01,36,14.40
2007,08,05,01,37,14.40
2007,08,05,01,38,14.40
2007,08,05,01,39,14.40
2007,08,05,01,40,14.40
2007,08,05,01,41,14.40
2007,08,05,01,42,14.40
2007,08,05,01,43,14.50
2007,08,05,01,44,14.50
2007,08,05,01,45,14.50
2007,08,05,01,46,14.50
2007,08,05,01,47,14.50
2007,08,05,01,48,14.60
2007,08,05,01,49,14.60
2007,08,05,01,50,14.60
2007,08,05,01,51,14.60
2007,08,05,01,52,14.60
2007,08,05,01,53,14.70
2007,08,05,01,54,14.70
2007,08,05,01,55,14.80
2007,08,05,01,56,14.90
2007,08,05,01,57,15.00
2007,08,05,01,58,15.10
2007,08,05,01,59,15.20
2007,08,05,02,00,15.30
2007,08,05,02,01,15.40
2007,08,05,02,02,15.40
2007,08,05,02,03,15.40
2007,08,05,02,04,15.50
2007,08,05,02,05,15.50
2007,08,05,02,06,15.50
2007,08,05,02,07,15.50
2007,08,05,02,08,15.50
2007,08,05,02,09,15.40
2007,08,05,02,10,15.40
2007,08,05,02,11,15.40
2007,08,05,02,12,15.30
2007,08,05,02,13,15.30
2007,08,05,02,14,15.30
2007,08,05,02,15,15.30
2007,08,05,02,16,15.30
2007,08,05,02,17,15.20
2007,08,05,02,18,15.20
2007,08,05,02,19,15.10
2007,08,05,02,20,15.10
2007,08,05,02,21,15.00
2007,08,05,02,22,15.00
2007,08,05,02,23,14.90
2007,08,05,02,24,14.80
2007,08,05,02,25,14.80
2007,08,05,02,26,14.70
2007,08,05,02,27,14.70
2007,08,05,02,28,14.60
2007,08,05,02,29,14.60
2007,08,05,02,30,14.50
2007,08,05,02,31,14.40
2007,08,05,02,32,14.30
2007,08,05,02,33,14.30
2007,08,05,02,34,14.20
2007,08,05,02,35,14.20
2007,08,05,02,36,14.20
2007,08,05,02,37,14.10
2007,08,05,02,38,14.10
2007,08,05,02,39,14.10
2007,08,05,02,40,14.00
2007,08,05,02,41,14.00
2007,08,05,02,42,14.00
2007,08,05,02,43,14.00
2007,08,05,02,44,14.00
2007,08,05,02,45,13.90
2007,08,05,02,46,13.90
2007,08,05,02,47,13.90
2007,08,05,02,48,13.90
2007,08,05,02,49,13.90
2007,08,05,02,50,13.90
2007,08,05,02,51,13.90
2007,08,05,02,52,13.90
2007,08,05,02,53,13.90
2007,08,05,02,54,13.90
2007,08,05,02,55,13.90
2007,08,05,02,56,13.90
2007,08,05,02,57,14.00
2007,08,05,02,58,14.00
2007,08,05,02,59,14.00
2007,08,05,03,00,14.00
2007,08,05,03,01,14.00
2007,08,05,03,02,14.00
2007,08,05,03,03,14.00
2007,08,05,03,04,14.00
2007,08,05,03,05,14.00
2007,08,05,03,06,14.00
2007,08,05,03,07,14.00
2007,08,05,03,08,14.00
2007,08,05,03,09,14.00
2007,08,05,03,10,14.00
2007,08,05,03,11,14.00
2007,08,05,03,12,14.00
2007,08,05,03,13,14.00
2007,08,05,03,14,14.00
2007,08,05,03,15,14.00
2007,08,05,03,16,13.90
2007,08,05,03,17,13.90
2007,08,05,03,18,13.90
2007,08,05,03,19,13.90
2007,08,05,03,20,13.90
2007,08,05,03,21,14.00
2007,08,05,03,22,14.00
2007,08,05,03,23,14.00
2007,08,05,03,24,14.00
2007,08,05,03,25,14.00
2007,08,05,03,26,13.90
2007,08,05,03,27,13.90
2007,08,05,03,28,13.90
2007,08,05,03,29,13.90
2007,08,05,03,30,13.90
2007,08,05,03,31,13.90
2007,08,05,03,32,13.80
2007,08,05,03,33,13.80
2007,08,05,03,34,13.80
2007,08,05,03,35,13.80
2007,08,05,03,36,13.70
2007,08,05,03,37,13.70
2007,08,05,03,38,13.70
2007,08,05,03,39,13.70
2007,08,05,03,40,13.70
2007,08,05,03,41,13.70
2007,08,05,03,42,13.70
2007,08,05,03,43,13.70
2007,08,05,03,44,13.70
2007,08,05,03,45,13.70
2007,08,05,03,46,13.70
2007,08,05,03,47,13.70
2007,08,05,03,48,13.70
2007,08,05,03,49,13.70
2007,08,05,03,50,13.70
2007,08,05,03,51,13.70
2007,08,05,03,52,13.70
2007,08,05,03,53,13.70
2007,08,05,03,54,13.70
2007,08,05,03,55,13.70
2007,08,05,03,56,13.70
2007,08,05,03,57,13.70
2007,08,05,03,58,13.70
2007,08,05,03,59,13.60
2007,08,05,04,00,13.60
2007,08,05,04,01,13.60
2007,08,05,04,02,13.60
2007,08,05,04,03,13.60
2007,08,05,04,04,13.60
2007,08,05,04,05,13.60
2007,08,05,04,06,13.60
2007,08,05,04,07,13.60
2007,08,05,04,08,13.60
2007,08,05,04,09,13.50
2007,08,05,04,10,13.50
2007,08,05,04,11,13.50
2007,08,05,04,12,13.50
2007,08,05,04,13,13.50
2007,08,05,04,14,13.50
2007,08,05,04,15,13.50
2007,08,05,04,16,13.50
2007,08,05,04,17,13.50
2007,08,05,04,18,13.50
2007,08,05,04,19,13.50
2007,08,05,04,20,13.50
2007,08,05,04,21,13.50
2007,08,05,04,22,13.50
2007,08,05,04,23,13.50
2007,08,05,04,24,13.50
2007,08,05,04,25,13.50
2007,08,05,04,26,13.50
2007,08,05,04,27,13.50
2007,08,05,04,28,13.50
2007,08,05,04,29,13.50
2007,08,05,04,30,13.60
2007,08,05,04,31,13.60
2007,08,05,04,32,13.60
2007,08,05,04,33,13.60
2007,08,05,04,34,13.60
2007,08,05,04,35,13.60
2007,08,05,04,36,13.60
2007,08,05,04,37,13.60
2007,08,05,04,38,13.60
2007,08,05,04,39,13.60
2007,08,05,04,40,13.60
2007,08,05,04,41,13.60
2007,08,05,04,42,13.60
2007,08,05,04,43,13.60
2007,08,05,04,44,13.70
2007,08,05,04,45,13.70
2007,08,05,04,46,13.70
2007,08,05,04,47,13.70
2007,08,05,04,48,13.70
2007,08,05,04,49,13.70
2007,08,05,04,50,13.70
2007,08,05,04,51,13.70
2007,08,05,04,52,13.70
2007,08,05,04,53,13.70
2007,08,05,04,54,13.70
2007,08,05,04,55,13.70
2007,08,05,04,56,13.70
2007,08,05,04,57,13.70
2007,08,05,04,58,13.70
2007,08,05,04,59,13.70
2007,08,05,05,00,13.70
2007,08,05,05,01,13.70
2007,08,05,05,02,13.70
2007,08,05,05,03,13.60
2007,08,05,05,04,13.60
2007,08,05,05,05,13.60
2007,08,05,05,06,13.60
2007,08,05,05,07,13.50
2007,08,05,05,08,13.50
2007,08,05,05,09,13.50
2007,08,05,05,10,13.40
2007,08,05,05,11,13.40
2007,08,05,05,12,13.40
2007,08,05,05,13,13.40
2007,08,05,05,14,13.30
2007,08,05,05,15,13.30
2007,08,05,05,16,13.30
2007,08,05,05,17,13.30
2007,08,05,05,18,13.30
2007,08,05,05,19,13.30
2007,08,05,05,20,13.30
2007,08,05,05,21,13.30
2007,08,05,05,22,13.30
2007,08,05,05,23,13.30
2007,08,05,05,24,13.30
2007,08,05,05,25,13.30
2007,08,05,05,26,13.30
2007,08,05,05,27,13.30
2007,08,05,05,28,13.30
2007,08,05,05,29,13.30
2007,08,05,05,30,13.30
2007,08,05,05,31,13.40
2007,08,05,05,32,13.40
2007,08,05,05,33,13.40
2007,08,05,05,34,13.40
2007,08,05,05,35,13.40
2007,08,05,05,36,13.40
2007,08,05,05,37,13.50
2007,08,05,05,38,13.40
2007,08,05,05,39,13.50
2007,08,05,05,40,13.50
2007,08,05,05,41,13.50
2007,08,05,05,42,13.50
2007,08,05,05,43,13.50
2007,08,05,05,44,13.40
2007,08,05,05,45,13.40
2007,08,05,05,46,13.40
2007,08,05,05,47,13.40
2007,08,05,05,48,13.40
2007,08,05,05,49,13.40
2007,08,05,05,50,13.40
2007,08,05,05,51,13.40
2007,08,05,05,52,13.40
2007,08,05,05,53,13.40
2007,08,05,05,54,13.30
2007,08,05,05,55,13.30
2007,08,05,05,56,13.30
2007,08,05,05,57,13.30
2007,08,05,05,58,13.30
2007,08,05,05,59,13.30
2007,08,05,06,00,13.30
2007,08,05,06,01,13.30
2007,08,05,06,02,13.30
2007,08,05,06,03,13.30
2007,08,05,06,04,13.30
2007,08,05,06,05,13.30
2007,08,05,06,06,13.30
2007,08,05,06,07,13.30
2007,08,05,06,08,13.30
2007,08,05,06,09,13.30
2007,08,05,06,10,13.30
2007,08,05,06,11,13.30
2007,08,05,06,12,13.30
2007,08,05,06,13,13.30
2007,08,05,06,14,13.30
2007,08,05,06,15,13.30
2007,08,05,06,16,13.30
2007,08,05,06,17,13.30
2007,08,05,06,18,13.30
2007,08,05,06,19,13.30
2007,08,05,06,20,13.40
2007,08,05,06,21,13.40
2007,08,05,06,22,13.40
2007,08,05,06,23,13.40
2007,08,05,06,24,13.50
2007,08,05,06,25,13.60
2007,08,05,06,26,13.60
2007,08,05,06,27,13.70
2007,08,05,06,28,13.70
2007,08,05,06,29,13.70
2007,08,05,06,30,13.70
2007,08,05,06,31,13.70
2007,08,05,06,32,13.70
2007,08,05,06,33,13.80
2007,08,05,06,34,13.80
2007,08,05,06,35,13.80
2007,08,05,06,36,13.80
2007,08,05,06,37,13.90
2007,08,05,06,38,13.90
2007,08,05,06,39,13.90
2007,08,05,06,40,13.90
2007,08,05,06,41,13.90
2007,08,05,06,42,14.00
2007,08,05,06,43,14.00
2007,08,05,06,44,14.00
2007,08,05,06,45,14.00
2007,08,05,06,46,14.10
2007,08,05,06,47,14.10
2007,08,05,06,48,14.10
2007,08,05,06,49,14.10
2007,08,05,06,50,14.10
2007,08,05,06,51,14.20
2007,08,05,06,52,14.20
2007,08,05,06,53,14.20
2007,08,05,06,54,14.20
2007,08,05,06,55,14.20
2007,08,05,06,56,14.20
2007,08,05,06,57,14.30
2007,08,05,06,58,14.30
2007,08,05,06,59,14.30
2007,08,05,07,00,14.30
2007,08,05,07,01,14.40
2007,08,05,07,02,14.40
2007,08,05,07,03,14.40
2007,08,05,07,04,14.50
2007,08,05,07,05,14.50
2007,08,05,07,06,14.50
2007,08,05,07,07,14.50
2007,08,05,07,08,14.50
2007,08,05,07,09,14.50
2007,08,05,07,10,14.60
2007,08,05,07,11,14.60
2007,08,05,07,12,14.60
2007,08,05,07,13,14.60
2007,08,05,07,14,14.60
2007,08,05,07,15,14.70
2007,08,05,07,16,14.70
2007,08,05,07,17,14.70
2007,08,05,07,18,14.80
2007,08,05,07,19,14.80
2007,08,05,07,20,14.80
2007,08,05,07,21,14.80
2007,08,05,07,22,14.80
2007,08,05,07,23,14.90
2007,08,05,07,24,14.90
2007,08,05,07,25,14.90
2007,08,05,07,26,15.00
2007,08,05,07,27,15.00
2007,08,05,07,28,15.00
2007,08,05,07,29,15.10
2007,08,05,07,30,15.10
2007,08,05,07,31,15.10
2007,08,05,07,32,15.20
2007,08,05,07,33,15.20
2007,08,05,07,34,15.20
2007,08,05,07,35,15.20
2007,08,05,07,36,15.30
2007,08,05,07,37,15.30
2007,08,05,07,38,15.30
2007,08,05,07,39,15.30
2007,08,05,07,40,15.30
2007,08,05,07,41,15.30
2007,08,05,07,42,15.40
2007,08,05,07,43,15.40
2007,08,05,07,44,15.40
2007,08,05,07,45,15.40
2007,08,05,07,46,15.40
2007,08,05,07,47,15.50
2007,08,05,07,48,15.50
2007,08,05,07,49,15.50
2007,08,05,07,50,15.50
2007,08,05,07,51,15.50
2007,08,05,07,52,15.50
2007,08,05,07,53,15.60
2007,08,05,07,54,15.60
2007,08,05,07,55,15.60
2007,08,05,07,56,15.60
2007,08,05,07,57,15.60
2007,08,05,07,58,15.60
2007,08,05,07,59,15.60
2007,08,05,08,00,15.60
2007,08,05,08,01,15.60
2007,08,05,08,02,15.70
2007,08,05,08,03,15.70
2007,08,05,08,04,15.70
2007,08,05,08,05,15.70
2007,08,05,08,06,15.80
2007,08,05,08,07,15.80
2007,08,05,08,08,15.80
2007,08,05,08,09,15.80
2007,08,05,08,10,15.80
2007,08,05,08,11,15.80
2007,08,05,08,12,15.80
2007,08,05,08,13,15.80
2007,08,05,08,14,15.80
2007,08,05,08,15,15.90
2007,08,05,08,16,15.90
2007,08,05,08,17,15.90
2007,08,05,08,18,15.90
2007,08,05,08,19,16.10
2007,08,05,08,20,16.10
2007,08,05,08,21,16.10
2007,08,05,08,22,16.10
2007,08,05,08,23,16.10
2007,08,05,08,24,16.10
2007,08,05,08,25,16.10
2007,08,05,08,26,16.10
2007,08,05,08,27,16.10
2007,08,05,08,28,16.20
2007,08,05,08,29,16.20
2007,08,05,08,30,16.20
2007,08,05,08,31,16.20
2007,08,05,08,32,16.20
2007,08,05,08,33,16.30
2007,08,05,08,34,16.30
2007,08,05,08,35,16.30
2007,08,05,08,36,16.30
2007,08,05,08,37,16.30
2007,08,05,08,38,16.30
2007,08,05,08,39,16.30
2007,08,05,08,40,16.30
2007,08,05,08,41,16.40
2007,08,05,08,42,16.40
2007,08,05,08,43,16.40
2007,08,05,08,44,16.40
2007,08,05,08,45,16.40
2007,08,05,08,46,16.40
2007,08,05,08,47,16.40
2007,08,05,08,48,16.40
2007,08,05,08,49,16.40
2007,08,05,08,50,16.40
2007,08,05,08,51,16.40
2007,08,05,08,52,16.40
2007,08,05,08,53,16.60
2007,08,05,08,54,16.60
2007,08,05,08,55,16.60
2007,08,05,08,56,16.70
2007,08,05,08,57,16.70
2007,08,05,08,58,16.70
2007,08,05,08,59,16.70
2007,08,05,09,00,16.70
2007,08,05,09,01,16.80
2007,08,05,09,02,16.80
2007,08,05,09,03,16.90
2007,08,05,09,04,16.90
2007,08,05,09,05,17.00
2007,08,05,09,06,17.00
2007,08,05,09,07,17.00
2007,08,05,09,08,17.00
2007,08,05,09,09,17.00
2007,08,05,09,10,17.00
2007,08,05,09,11,16.90
2007,08,05,09,12,16.90
2007,08,05,09,13,16.90
2007,08,05,09,14,16.90
2007,08,05,09,15,16.90
2007,08,05,09,16,16.90
2007,08,05,09,17,17.00
2007,08,05,09,18,17.00
2007,08,05,09,19,17.00
2007,08,05,09,20,17.00
2007,08,05,09,21,17.00
2007,08,05,09,22,17.00
2007,08,05,09,23,17.00
2007,08,05,09,24,17.00
2007,08,05,09,25,17.00
2007,08,05,09,26,17.00
2007,08,05,09,27,17.10
2007,08,05,09,28,17.10
2007,08,05,09,29,17.10
2007,08,05,09,30,17.20
2007,08,05,09,31,17.20
2007,08,05,09,32,17.30
2007,08,05,09,33,17.30
2007,08,05,09,34,17.30
2007,08,05,09,35,17.30
2007,08,05,09,36,17.30
2007,08,05,09,37,17.30
2007,08,05,09,38,17.30
2007,08,05,09,39,17.30
2007,08,05,09,40,17.30
2007,08,05,09,41,17.30
2007,08,05,09,42,17.30
2007,08,05,09,43,17.30
2007,08,05,09,44,17.30
2007,08,05,09,45,17.30
2007,08,05,09,46,17.30
2007,08,05,09,47,17.40
2007,08,05,09,48,17.40
2007,08,05,09,49,17.40
2007,08,05,09,50,17.40
2007,08,05,09,51,17.50
2007,08,05,09,52,17.50
2007,08,05,09,53,17.60
2007,08,05,09,54,17.70
2007,08,05,09,55,17.70
2007,08,05,09,56,17.80
2007,08,05,09,57,17.80
2007,08,05,09,58,17.80
2007,08,05,09,59,17.80
2007,08,05,10,00,17.90
2007,08,05,10,01,17.90
2007,08,05,10,02,17.90
2007,08,05,10,03,18.00
2007,08,05,10,04,18.10
2007,08,05,10,05,18.10
2007,08,05,10,06,18.20
2007,08,05,10,07,18.20
2007,08,05,10,08,18.20
2007,08,05,10,09,18.20
2007,08,05,10,10,18.30
2007,08,05,10,11,18.30
2007,08,05,10,12,18.30
2007,08,05,10,13,18.30
2007,08,05,10,14,18.30
2007,08,05,10,15,18.30
2007,08,05,10,16,18.30
2007,08,05,10,17,18.30
2007,08,05,10,18,18.30
2007,08,05,10,19,18.30
2007,08,05,10,20,18.40
2007,08,05,10,21,18.40
2007,08,05,10,22,18.40
2007,08,05,10,23,18.20
2007,08,05,10,24,18.20
2007,08,05,10,25,18.20
2007,08,05,10,26,18.20
2007,08,05,10,27,18.20
2007,08,05,10,28,18.20
2007,08,05,10,29,18.20
2007,08,05,10,30,18.20
2007,08,05,10,31,18.20
2007,08,05,10,32,18.20
2007,08,05,10,33,18.20
2007,08,05,10,34,18.20
2007,08,05,10,35,18.20
2007,08,05,10,36,18.20
2007,08,05,10,37,18.20
2007,08,05,10,38,18.20
2007,08,05,10,39,18.20
2007,08,05,10,40,18.20
2007,08,05,10,41,18.20
2007,08,05,10,42,18.20
2007,08,05,10,43,18.30
2007,08,05,10,44,18.40
2007,08,05,10,45,18.40
2007,08,05,10,46,18.40
2007,08,05,10,47,18.40
2007,08,05,10,48,18.40
2007,08,05,10,49,18.40
2007,08,05,10,50,18.40
2007,08,05,10,51,18.40
2007,08,05,10,52,18.40
2007,08,05,10,53,18.40
2007,08,05,10,54,18.30
2007,08,05,10,55,18.30
2007,08,05,10,56,18.40
2007,08,05,10,57,18.50
2007,08,05,10,58,18.50
2007,08,05,10,59,18.50
2007,08,05,11,00,18.50
2007,08,05,11,01,18.50
2007,08,05,11,02,18.40
2007,08,05,11,03,18.50
2007,08,05,11,04,18.50
2007,08,05,11,05,18.50
2007,08,05,11,06,18.50
2007,08,05,11,07,18.50
2007,08,05,11,08,18.60
2007,08,05,11,09,18.50
2007,08,05,11,10,18.50
2007,08,05,11,11,18.40
2007,08,05,11,12,18.50
2007,08,05,11,13,18.60
2007,08,05,11,14,18.60
2007,08,05,11,15,18.60
2007,08,05,11,16,18.60
2007,08,05,11,17,18.50
2007,08,05,11,18,18.40
2007,08,05,11,19,18.40
2007,08,05,11,20,18.30
2007,08,05,11,21,18.30
2007,08,05,11,22,18.40
2007,08,05,11,23,18.40
2007,08,05,11,24,18.50
2007,08,05,11,25,18.50
2007,08,05,11,26,18.60
2007,08,05,11,27,18.60
2007,08,05,11,28,18.70
2007,08,05,11,29,18.70
2007,08,05,11,30,18.80
2007,08,05,11,31,18.90
2007,08,05,11,32,18.90
2007,08,05,11,33,18.90
2007,08,05,11,34,18.90
2007,08,05,11,35,18.90
2007,08,05,11,36,18.90
2007,08,05,11,37,18.90
2007,08,05,11,38,18.90
2007,08,05,11,39,18.90
2007,08,05,11,40,18.80
2007,08,05,11,41,18.60
2007,08,05,11,42,18.60
2007,08,05,11,43,18.60
2007,08,05,11,44,18.60
2007,08,05,11,45,18.70
2007,08,05,11,46,18.80
2007,08,05,11,47,18.80
2007,08,05,11,48,18.90
2007,08,05,11,49,18.90
2007,08,05,11,50,18.90
2007,08,05,11,51,18.90
2007,08,05,11,52,18.80
2007,08,05,11,53,18.70
2007,08,05,11,54,18.70
2007,08,05,11,55,18.70
2007,08,05,11,56,18.80
2007,08,05,11,57,18.80
2007,08,05,11,58,18.90
2007,08,05,11,59,18.90
2007,08,05,12,00,19.00
2007,08,05,12,01,19.10
2007,08,05,12,02,19.10
2007,08,05,12,03,19.20
2007,08,05,12,04,19.20
2007,08,05,12,05,19.40
2007,08,05,12,06,19.40
2007,08,05,12,07,19.50
2007,08,05,12,08,19.60
2007,08,05,12,09,19.70
2007,08,05,12,10,19.70
2007,08,05,12,11,19.80
2007,08,05,12,12,19.80
2007,08,05,12,13,19.80
2007,08,05,12,14,19.90
2007,08,05,12,15,19.90
2007,08,05,12,16,19.90
2007,08,05,12,17,19.80
2007,08,05,12,18,19.70
2007,08,05,12,19,19.70
2007,08,05,12,20,19.60
2007,08,05,12,21,19.60
2007,08,05,12,22,19.60
2007,08,05,12,23,19.60
2007,08,05,12,24,19.70
2007,08,05,12,25,19.80
2007,08,05,12,26,19.90
2007,08,05,12,27,20.00
2007,08,05,12,28,19.90
2007,08,05,12,29,19.90
2007,08,05,12,30,19.90
2007,08,05,12,31,19.90
2007,08,05,12,32,19.90
2007,08,05,12,33,19.90
2007,08,05,12,34,20.10
2007,08,05,12,35,20.20
2007,08,05,12,36,20.20
2007,08,05,12,37,20.20
2007,08,05,12,38,20.30
2007,08,05,12,39,20.30
2007,08,05,12,40,20.20
2007,08,05,12,41,20.20
2007,08,05,12,42,20.20
2007,08,05,12,43,20.00
2007,08,05,12,44,19.90
2007,08,05,12,45,19.90
2007,08,05,12,46,19.90
2007,08,05,12,47,19.90
2007,08,05,12,48,19.90
2007,08,05,12,49,19.90
2007,08,05,12,50,19.90
2007,08,05,12,51,20.00
2007,08,05,12,52,20.10
2007,08,05,12,53,20.20
2007,08,05,12,54,20.20
2007,08,05,12,55,20.40
2007,08,05,12,56,20.50
2007,08,05,12,57,20.50
2007,08,05,12,58,20.40
2007,08,05,12,59,20.30
2007,08,05,13,00,20.20
2007,08,05,13,01,20.10
2007,08,05,13,02,20.10
2007,08,05,13,03,20.00
2007,08,05,13,04,19.90
2007,08,05,13,05,19.90
2007,08,05,13,06,19.90
2007,08,05,13,07,20.00
2007,08,05,13,08,20.10
2007,08,05,13,09,20.20
2007,08,05,13,10,20.30
2007,08,05,13,11,20.40
2007,08,05,13,12,20.50
2007,08,05,13,13,20.50
2007,08,05,13,14,20.60
2007,08,05,13,15,20.70
2007,08,05,13,16,20.70
2007,08,05,13,17,20.80
2007,08,05,13,18,20.80
2007,08,05,13,19,20.80
2007,08,05,13,20,20.80
2007,08,05,13,21,20.70
2007,08,05,13,22,20.60
2007,08,05,13,23,20.50
2007,08,05,13,24,20.40
2007,08,05,13,25,20.50
2007,08,05,13,26,20.50
2007,08,05,13,27,20.50
2007,08,05,13,28,20.50
2007,08,05,13,29,20.50
2007,08,05,13,30,20.50
2007,08,05,13,31,20.50
2007,08,05,13,32,20.50
2007,08,05,13,33,20.60
2007,08,05,13,34,20.60
2007,08,05,13,35,20.70
2007,08,05,13,36,20.70
2007,08,05,13,37,20.70
2007,08,05,13,38,20.60
2007,08,05,13,39,20.60
2007,08,05,13,40,20.60
2007,08,05,13,41,20.60
2007,08,05,13,42,20.70
2007,08,05,13,43,20.70
2007,08,05,13,44,20.70
2007,08,05,13,45,20.70
2007,08,05,13,46,20.70
2007,08,05,13,47,20.70
2007,08,05,13,48,20.80
2007,08,05,13,49,20.90
2007,08,05,13,50,21.00
2007,08,05,13,51,21.00
2007,08,05,13,52,21.10
2007,08,05,13,53,21.00
2007,08,05,13,54,21.00
2007,08,05,13,55,20.80
2007,08,05,13,56,20.70
2007,08,05,13,57,20.50
2007,08,05,13,58,20.50
2007,08,05,13,59,20.50
2007,08,05,14,00,20.50
2007,08,05,14,01,20.50
2007,08,05,14,02,20.50
2007,08,05,14,03,20.60
2007,08,05,14,04,20.70
2007,08,05,14,05,20.70
2007,08,05,14,06,20.80
2007,08,05,14,07,20.80
2007,08,05,14,08,20.90
2007,08,05,14,09,21.00
2007,08,05,14,10,21.10
2007,08,05,14,11,21.10
2007,08,05,14,12,21.20
2007,08,05,14,13,21.30
2007,08,05,14,14,21.30
2007,08,05,14,15,21.30
2007,08,05,14,16,21.30
2007,08,05,14,17,21.30
2007,08,05,14,18,21.40
2007,08,05,14,19,21.50
2007,08,05,14,20,21.60
2007,08,05,14,21,21.60
2007,08,05,14,22,21.80
2007,08,05,14,23,21.80
2007,08,05,14,24,21.90
2007,08,05,14,25,21.90
2007,08,05,14,26,22.00
2007,08,05,14,27,22.00
2007,08,05,14,28,22.10
2007,08,05,14,29,22.10
2007,08,05,14,30,22.20
2007,08,05,14,31,22.20
2007,08,05,14,32,22.30
2007,08,05,14,33,22.30
2007,08,05,14,34,22.40
2007,08,05,14,35,22.50
2007,08,05,14,36,22.60
2007,08,05,14,37,22.60
2007,08,05,14,38,22.60
2007,08,05,14,39,22.60
2007,08,05,14,40,22.70
2007,08,05,14,41,22.70
2007,08,05,14,42,22.70
2007,08,05,14,43,22.80
2007,08,05,14,44,22.90
2007,08,05,14,45,22.90
2007,08,05,14,46,22.90
2007,08,05,14,47,23.10
2007,08,05,14,48,23.10
2007,08,05,14,49,23.10
2007,08,05,14,50,23.20
2007,08,05,14,51,23.10
2007,08,05,14,52,23.10
2007,08,05,14,53,23.10
2007,08,05,14,54,23.20
2007,08,05,14,55,23.20
2007,08,05,14,56,23.20
2007,08,05,14,57,23.20
2007,08,05,14,58,23.30
2007,08,05,14,59,23.20
2007,08,05,15,00,23.20
2007,08,05,15,01,23.10
2007,08,05,15,02,22.90
2007,08,05,15,03,22.80
2007,08,05,15,04,22.70
2007,08,05,15,05,22.60
2007,08,05,15,06,22.50
2007,08,05,15,07,22.50
2007,08,05,15,08,22.50
2007,08,05,15,09,22.50
2007,08,05,15,10,22.60
2007,08,05,15,11,22.70
2007,08,05,15,12,22.80
2007,08,05,15,13,22.80
2007,08,05,15,14,22.80
2007,08,05,15,15,22.90
2007,08,05,15,16,22.90
2007,08,05,15,17,22.90
2007,08,05,15,18,23.00
2007,08,05,15,19,23.00
2007,08,05,15,20,22.90
2007,08,05,15,21,22.90
2007,08,05,15,22,22.90
2007,08,05,15,23,22.90
2007,08,05,15,24,22.90
2007,08,05,15,25,22.90
2007,08,05,15,26,22.90
2007,08,05,15,27,22.90
2007,08,05,15,28,23.10
2007,08,05,15,29,23.10
2007,08,05,15,30,23.20
2007,08,05,15,31,23.20
2007,08,05,15,32,23.20
2007,08,05,15,33,23.20
2007,08,05,15,34,23.30
2007,08,05,15,35,23.30
2007,08,05,15,36,23.40
2007,08,05,15,37,23.40
2007,08,05,15,38,23.30
2007,08,05,15,39,23.30
2007,08,05,15,40,23.30
2007,08,05,15,41,23.30
2007,08,05,15,42,23.30
2007,08,05,15,43,23.30
2007,08,05,15,44,23.30
2007,08,05,15,45,23.30
2007,08,05,15,46,23.30
2007,08,05,15,47,23.30
2007,08,05,15,48,23.30
2007,08,05,15,49,23.30
2007,08,05,15,50,23.20
2007,08,05,15,51,23.00
2007,08,05,15,52,22.90
2007,08,05,15,53,22.80
2007,08,05,15,54,22.70
2007,08,05,15,55,22.60
2007,08,05,15,56,22.60
2007,08,05,15,57,22.60
2007,08,05,15,58,22.50
2007,08,05,15,59,22.60
2007,08,05,16,00,22.70
2007,08,05,16,01,22.70
2007,08,05,16,02,22.90
2007,08,05,16,03,23.00
2007,08,05,16,04,23.10
2007,08,05,16,05,23.20
2007,08,05,16,06,23.30
2007,08,05,16,07,23.30
2007,08,05,16,08,23.30
2007,08,05,16,09,23.40
2007,08,05,16,10,23.40
2007,08,05,16,11,23.40
2007,08,05,16,12,23.30
2007,08,05,16,13,23.30
2007,08,05,16,14,23.20
2007,08,05,16,15,23.10
2007,08,05,16,16,23.10
2007,08,05,16,17,23.20
2007,08,05,16,18,23.20
2007,08,05,16,19,23.10
2007,08,05,16,20,23.10
2007,08,05,16,21,23.00
2007,08,05,16,22,22.90
2007,08,05,16,23,22.90
2007,08,05,16,24,22.90
2007,08,05,16,25,22.90
2007,08,05,16,26,23.00
2007,08,05,16,27,23.10
2007,08,05,16,28,23.20
2007,08,05,16,29,23.30
2007,08,05,16,30,23.30
2007,08,05,16,31,23.30
2007,08,05,16,32,23.30
2007,08,05,16,33,23.40
2007,08,05,16,34,23.50
2007,08,05,16,35,23.60
2007,08,05,16,36,23.70
2007,08,05,16,37,23.70
2007,08,05,16,38,23.70
2007,08,05,16,39,23.70
2007,08,05,16,40,23.80
2007,08,05,16,41,23.90
2007,08,05,16,42,24.00
2007,08,05,16,43,24.10
2007,08,05,16,44,24.20
2007,08,05,16,45,24.20
2007,08,05,16,46,24.30
2007,08,05,16,47,24.40
2007,08,05,16,48,24.50
2007,08,05,16,49,24.60
2007,08,05,16,50,24.60
2007,08,05,16,51,24.70
2007,08,05,16,52,24.70
2007,08,05,16,53,24.70
2007,08,05,16,54,24.70
2007,08,05,16,55,24.80
2007,08,05,16,56,24.80
2007,08,05,16,57,24.90
2007,08,05,16,58,24.90
2007,08,05,16,59,24.80
2007,08,05,17,00,24.80
2007,08,05,17,01,24.80
2007,08,05,17,02,24.90
2007,08,05,17,03,24.90
2007,08,05,17,04,25.00
2007,08,05,17,05,25.00
2007,08,05,17,06,25.00
2007,08,05,17,07,25.10
2007,08,05,17,08,25.10
2007,08,05,17,09,25.10
2007,08,05,17,10,25.20
2007,08,05,17,11,25.30
2007,08,05,17,12,25.30
2007,08,05,17,13,25.40
2007,08,05,17,14,25.40
2007,08,05,17,15,25.40
2007,08,05,17,16,25.30
2007,08,05,17,17,25.30
2007,08,05,17,18,25.30
2007,08,05,17,19,25.30